{"data":{"norad_id":58411,"epoch":"2026-05-24T19:41:29.821920Z","epoch_age_seconds":80725,"freshness":"FRESH","line1":"1 58411U 23180K   26144.82048405  .00000533  00000+0  28895-4 0  9997","line2":"2 58411  43.0035 342.1490 0001321 255.8324 104.2381 15.27577413139177","mean_motion":15.27577413,"eccentricity":0.0001321,"inclination_deg":43.0035,"raan_deg":342.149,"arg_perigee_deg":255.8324,"mean_anomaly_deg":104.2381,"bstar":2.8895e-5,"rev_number":13917,"period_min":94.266908357331,"perigee_km":482.15047875267,"apogee_km":483.96320616584,"semimajor_km":6861.1938424593,"source":"CELESTRAK","updated_at":"2026-05-25T13:38:18.618484Z"}}